Volver al catálogo

DELTA 1 DEB

ActivoUNKNOWN
NORAD 7025·DEBRIS·🇺🇸 United States

Lanzado Nov 6, 1973 desde Vandenberg Space Force Base

Loading…

Próximos Pases (próximas 24 horas)

TLE

ActualizadoSource: Space-Track

Época: Sep 14, 2026, 09:34 UTC

1 07025U 73086R   26257.39884546 -.00000025  00000-0  12612-3 0  9990
2 07025 101.9128 226.5069 0463146  44.5804 123.4280 11.54280268227500

Sigue DELTA 1 DEB en tiempo real con AllMySat

Download on the App Store